Terminal Aerodrome Forecast
Issued by NWS

Home | Current Version | Previous Version | Graphics & Text | Print | Product List | Glossary On
Versions: 1 2 3 4 5 6 7 8 9 10 11 12 13 14 15 16
000
FTUS43 KIWX 031100
TAFSBN
TAF
KSBN 031138Z 0312/0412 15010KT 5SM -SNPL OVC050
      TEMPO 0312/0314 4SM -FZRAPL
     FM031400 15012KT 5SM -FZRAPL BR OVC020 WS020/20040KT
     FM031600 17013G20KT 2SM -FZRA BR OVC006 WS020/23050KT
     FM032000 20016G23KT 1SM -RA BR OVC004
     FM040100 27013G18KT P6SM -SHSN OVC012=

USA.gov is the U.S. government's official web portal to all federal, state and local government web resources and services.